FW8436 Weather Reports


Display with metric or nautical units.
time (UTC)temp
F
wind
direction
speed
MPH
gust
MPH
rain 1hr
in
rain 24hr
in
rain mn
in
humidity
%
barometer
mb
20260508121556 40 0 1.0 2.0 0.00 0.00 0.00 96 1018.5
20260508121030 40 197 1.0 2.0 0.00 0.00 0.00 96 1018.5
20260508120532 40 360 0.0 2.0 0.00 0.00 0.00 96 1018.5
20260508120044 39 0 0.0 2.0 0.00 0.00 0.00 96 1018.5
20260508115531 38 0 0.0 0.0 0.00 0.00 0.00 96 1018.5
20260508115030 37 0 0.0 0.0 0.00 0.00 0.00 96 1018.5
20260508114540 35 0 0.0 0.0 0.00 0.00 0.00 95 1018.5
20260508114122 34 0 0.0 0.0 0.00 0.00 0.00 95 1018.4
20260508113531 33 0 0.0 0.0 0.00 0.00 0.00 95 1018.3
20260508113044 33 0 0.0 0.0 0.00 0.00 0.00 95 1018.3
20260508112530 32 0 0.0 0.0 0.00 0.00 0.00 94 1018.2
20260508112029 32 0 0.0 0.0 0.00 0.00 0.00 94 1018.1
20260508111545 32 0 0.0 0.0 0.00 0.00 0.00 95 1018.1
20260508111031 32 0 0.0 0.0 0.00 0.00 0.00 95 1018.0
20260508110529 32 0 0.0 0.0 0.00 0.00 0.00 94 1018.0
20260508110037 31 0 0.0 0.0 0.00 0.00 0.00 95 1018.1
20260508105532 31 0 0.0 0.0 0.00 0.00 0.00 94 1018.0
20260508105029 31 0 0.0 0.0 0.00 0.00 0.00 94 1018.0
20260508104608 31 0 0.0 0.0 0.00 0.00 0.00 94 1017.9
20260508104029 31 0 0.0 0.0 0.00 0.00 0.00 94 1017.9
20260508103529 31 0 0.0 0.0 0.00 0.00 0.00 94 1017.9
20260508103044 31 0 0.0 0.0 0.00 0.00 0.00 94 1017.9
20260508102529 31 0 0.0 0.0 0.00 0.00 0.00 94 1017.9
20260508102029 31 0 0.0 0.0 0.00 0.00 0.00 94 1017.9
20260508101541 31 0 0.0 0.0 0.00 0.00 0.00 94 1017.9
20260508101031 31 0 0.0 0.0 0.00 0.00 0.00 94 1017.8
20260508100530 31 0 0.0 0.0 0.00 0.00 0.00 94 1017.8
20260508100039 31 0 0.0 0.0 0.00 0.00 0.00 94 1017.7
20260508095530 31 0 0.0 0.0 0.00 0.00 0.00 94 1017.6
20260508095029 32 0 0.0 0.0 0.00 0.00 0.00 94 1017.6
20260508094543 32 0 0.0 0.0 0.00 0.00 0.00 94 1017.6
20260508094029 32 0 0.0 0.0 0.00 0.00 0.00 94 1017.5
20260508093531 32 0 0.0 0.0 0.00 0.00 0.00 94 1017.5
20260508093038 32 0 0.0 0.0 0.00 0.00 0.00 94 1017.6
20260508092530 32 0 0.0 0.0 0.00 0.00 0.00 94 1017.4
20260508092029 32 0 0.0 0.0 0.00 0.00 0.00 94 1017.4
20260508091545 32 0 0.0 0.0 0.00 0.00 0.00 94 1017.3
20260508091029 32 0 0.0 0.0 0.00 0.00 0.00 94 1017.3
20260508090529 32 0 0.0 2.0 0.00 0.00 0.00 94 1017.4
20260508085530 32 0 0.0 2.0 0.00 0.00 0.00 94 1017.2
20260508085029 32 0 0.0 2.0 0.00 0.00 0.00 94 1017.2
20260508084539 32 360 0.0 0.0 0.00 0.00 0.00 94 1017.2
20260508084032 32 0 0.0 0.0 0.00 0.00 0.00 94 1017.1
20260508083533 33 0 0.0 0.0 0.00 0.00 0.00 94 1017.2
20260508083056 33 0 0.0 0.0 0.00 0.00 0.00 94 1017.2
20260508082533 33 0 0.0 0.0 0.00 0.00 0.00 94 1017.2
20260508082030 33 0 0.0 0.0 0.00 0.00 0.00 94 1017.1
20260508081551 33 0 0.0 0.0 0.00 0.00 0.00 94 1017.0
20260508081029 33 0 0.0 1.0 0.00 0.00 0.00 94 1017.1
20260508080533 33 0 0.0 1.0 0.00 0.00 0.00 94 1017.0
20260508080047 34 0 0.0 1.0 0.00 0.00 0.00 94 1016.9
20260508075530 33 0 0.0 0.0 0.00 0.01 0.00 94 1017.0
20260508075034 34 0 0.0 0.0 0.00 0.01 0.00 94 1017.0
20260508074546 34 0 0.0 1.0 0.00 0.01 0.00 94 1016.9
20260508074033 34 0 0.0 1.0 0.00 0.01 0.00 94 1017.1
20260508073533 34 0 0.0 1.0 0.00 0.01 0.00 94 1017.0
20260508073044 35 0 0.0 0.0 0.00 0.01 0.00 94 1017.0
20260508072530 35 0 0.0 2.0 0.00 0.01 0.00 94 1016.9
20260508072033 35 0 0.0 2.0 0.00 0.01 0.00 94 1016.7
20260508071541 36 0 0.0 0.0 0.00 0.01 0.00 94 1016.6
20260508071030 35 0 0.0 0.0 0.00 0.01 0.00 94 1016.7
20260508070532 35 0 0.0 0.0 0.00 0.01 0.00 94 1016.6
20260508070122 35 0 0.0 3.0 0.00 0.01 0.00 94 1016.6
20260508065532 35 0 0.0 3.0 0.00 0.01 0.00 93 1016.7
20260508065032 35 0 1.0 3.0 0.00 0.01 0.00 94 1016.7
20260508064605 36 0 0.0 1.0 0.00 0.01 0.00 94 1016.8
20260508064033 35 0 0.0 2.0 0.00 0.01 0.00 94 1016.7
20260508063536 35 0 0.0 2.0 0.00 0.01 0.00 94 1016.6
20260508063049 36 360 0.0 2.0 0.00 0.01 0.00 93 1016.6
20260508062534 36 0 0.0 2.0 0.00 0.01 0.00 94 1016.7
20260508062034 36 0 0.0 2.0 0.00 0.01 0.00 93 1016.8
20260508061549 36 0 0.0 2.0 0.00 0.01 0.00 93 1016.8
20260508061035 37 0 0.0 2.0 0.00 0.01 0.00 93 1016.8
20260508060535 37 0 0.0 2.0 0.00 0.01 0.00 93 1016.9
20260508060045 37 360 0.0 2.0 0.00 0.01 0.00 93 1016.9
20260508055533 38 0 0.0 1.0 0.00 0.01 0.00 94 1016.9
20260508055033 38 0 0.0 1.0 0.00 0.01 0.00 94 1017.0
20260508054543 37 0 0.0 3.0 0.00 0.01 0.00 93 1016.8
20260508054033 38 0 0.0 3.0 0.00 0.01 0.00 93 1016.9
20260508053534 38 0 0.0 3.0 0.00 0.01 0.00 93 1016.9
20260508053039 39 0 0.0 3.0 0.00 0.01 0.00 94 1016.8
20260508052529 38 0 0.0 3.0 0.00 0.01 0.00 93 1016.7
20260508052029 39 360 0.0 3.0 0.00 0.01 0.00 94 1016.7
20260508051540 39 0 1.0 3.0 0.00 0.01 0.00 93 1016.6
20260508051034 39 0 0.0 1.0 0.00 0.01 0.00 93 1016.5
20260508050534 40 0 0.0 3.0 0.00 0.01 0.00 93 1016.4
20260508050047 40 0 0.0 3.0 0.00 0.01 0.00 94 1016.2
20260508045531 40 360 1.0 3.0 0.00 0.01 0.00 94 1016.2
20260508045034 40 360 0.0 3.0 0.00 0.01 0.00 93 1016.2
20260508044541 40 0 0.0 3.0 0.00 0.01 0.00 93 1016.1
20260508044034 40 360 0.0 3.0 0.00 0.01 0.00 94 1015.8
20260508043537 40 0 0.0 3.0 0.00 0.01 0.00 93 1015.8
20260508043057 40 0 0.0 2.0 0.00 0.01 0.00 93 1015.8
20260508042533 41 0 0.0 2.0 0.00 0.01 0.00 93 1015.9
20260508042030 41 0 0.0 2.0 0.00 0.01 0.00 93 1015.9
20260508041542 40 0 0.0 4.0 0.00 0.01 0.00 93 1015.8
20260508041033 41 0 1.0 4.0 0.00 0.01 0.00 93 1015.8
20260508040530 41 0 0.0 2.0 0.00 0.01 0.00 93 1015.8
20260508040041 41 0 0.0 3.0 0.00 0.01 0.00 93 1015.7
20260508035530 41 0 1.0 3.0 0.00 0.01 0.01 93 1015.7
20260508035031 41 0 0.0 3.0 0.00 0.01 0.01 92 1015.7
20260508034539 41 360 0.0 3.0 0.00 0.01 0.01 93 1015.7
20260508034030 42 0 0.0 3.0 0.00 0.01 0.01 93 1015.7
20260508033530 41 0 0.0 2.0 0.00 0.01 0.01 93 1015.6
20260508033037 41 0 0.0 2.0 0.00 0.01 0.01 92 1015.4
20260508032530 42 360 0.0 1.0 0.00 0.01 0.01 92 1015.5
20260508032034 42 0 0.0 2.0 0.00 0.01 0.01 92 1015.6
20260508031551 42 0 0.0 2.0 0.00 0.01 0.01 92 1015.6
20260508031035 42 360 0.0 1.0 0.00 0.01 0.01 92 1015.6
20260508030533 43 0 0.0 1.0 0.00 0.01 0.01 92 1015.5
20260508030050 42 0 0.0 2.0 0.00 0.01 0.01 92 1015.5
20260508025533 42 0 0.0 2.0 0.00 0.03 0.01 92 1015.4
20260508025030 43 360 0.0 2.0 0.00 0.03 0.01 91 1015.2
20260508024539 43 0 0.0 0.0 0.00 0.03 0.01 91 1015.2
20260508024031 43 0 0.0 2.0 0.00 0.03 0.01 91 1015.2
20260508023531 43 0 0.0 2.0 0.00 0.03 0.01 91 1015.1
20260508023041 43 360 0.0 2.0 0.00 0.03 0.01 90 1015.0
20260508022532 44 0 0.0 2.0 0.00 0.03 0.01 89 1014.9
20260508022031 45 0 0.0 3.0 0.00 0.03 0.01 90 1014.8
20260508021541 45 0 1.0 3.0 0.00 0.03 0.01 90 1014.6
20260508021031 45 360 0.0 4.0 0.00 0.03 0.01 90 1014.6
20260508020529 45 268 1.0 4.0 0.00 0.03 0.01 89 1014.6
20260508020045 45 360 0.0 2.0 0.00 0.03 0.01 89 1014.4
20260508015533 46 0 0.0 3.0 0.00 0.25 0.01 89 1014.4
20260508015030 46 0 0.0 3.0 0.00 0.25 0.01 89 1014.4
20260508014545 46 360 0.0 3.0 0.00 0.25 0.01 88 1014.3
20260508014032 46 360 0.0 2.0 0.00 0.25 0.01 88 1014.1
20260508013533 46 268 0.0 2.0 0.00 0.25 0.01 87 1014.1
20260508013050 46 0 0.0 2.0 0.00 0.25 0.01 86 1014.0
20260508012533 47 0 0.0 2.0 0.00 0.25 0.01 86 1013.9
20260508012030 47 0 0.0 2.0 0.00 0.25 0.01 84 1013.9
20260508011544 48 268 0.0 3.0 0.00 0.25 0.01 83 1013.9
20260508011030 48 0 0.0 3.0 0.00 0.25 0.01 83 1013.9
20260508010530 48 262 0.0 2.0 0.00 0.25 0.01 82 1013.9
20260508010045 49 0 0.0 3.0 0.00 0.25 0.01 80 1013.7
20260508005532 50 0 0.0 3.0 0.00 0.36 0.01 78 1013.7
20260508005032 51 270 1.0 4.0 0.00 0.36 0.01 76 1013.6
20260508004545 51 270 1.0 5.0 0.00 0.36 0.01 72 1013.7
20260508004032 51 272 2.0 5.0 0.00 0.36 0.01 73 1013.6
20260508003529 51 234 1.0 5.0 0.00 0.36 0.01 74 1013.6
20260508003041 52 0 0.0 5.0 0.00 0.36 0.01 71 1013.5
20260508002534 52 234 2.0 5.0 0.00 0.36 0.01 72 1013.5
20260508002034 52 0 0.0 4.0 0.00 0.36 0.01 71 1013.6
20260508001543 53 164 0.0 4.0 0.00 0.36 0.01 70 1013.6
20260508001034 53 0 1.0 4.0 0.00 0.36 0.01 70 1013.7
20260508000530 53 232 1.0 6.0 0.00 0.36 0.01 69 1013.6
20260508000040 54 243 2.0 6.0 0.00 0.36 0.01 69 1013.4
20260507235530 54 211 1.0 4.0 0.00 0.36 0.01 67 1013.3
20260507235029 55 281 1.0 6.0 0.00 0.36 0.01 65 1013.4
20260507234547 55 226 1.0 6.0 0.00 0.36 0.01 65 1013.4
20260507234029 55 31 1.0 7.0 0.00 0.36 0.01 66 1013.4
20260507233533 56 254 1.0 7.0 0.00 0.36 0.01 64 1013.4
20260507233045 56 332 2.0 9.0 0.00 0.36 0.01 64 1013.3
20260507232533 57 0 1.0 10.0 0.00 0.36 0.01 64 1013.3
20260507232033 57 298 1.0 10.0 0.00 0.36 0.01 63 1013.3
20260507231555 58 195 1.0 6.0 0.00 0.36 0.01 63 1013.2
20260507231033 58 269 0.0 8.0 0.00 0.36 0.01 63 1013.2
20260507230533 57 300 2.0 8.0 0.00 0.36 0.01 62 1013.2
20260507230044 57 322 3.0 8.0 0.00 0.36 0.01 63 1013.1
20260507225534 58 234 3.0 7.0 0.00 0.36 0.01 62 1013.1
20260507225030 58 83 2.0 8.0 0.00 0.36 0.01 63 1013.1
20260507224540 58 355 2.0 8.0 0.00 0.36 0.01 64 1013.0
20260507224030 58 319 1.0 10.0 0.00 0.36 0.01 63 1013.1
20260507223530 58 209 1.0 10.0 0.00 0.36 0.01 63 1012.9
20260507223039 58 335 2.0 10.0 0.00 0.36 0.01 62 1013.1
20260507222530 58 291 4.0 8.0 0.00 0.36 0.01 63 1012.9
20260507222030 58 340 2.0 13.0 0.00 0.36 0.01 64 1012.8
20260507221535 58 349 4.0 13.0 0.00 0.36 0.01 63 1012.8
20260507221030 58 289 2.0 8.0 0.00 0.36 0.01 63 1012.7
20260507220532 58 329 2.0 8.0 0.00 0.36 0.01 63 1012.7
20260507220034 57 217 2.0 6.0 0.00 0.36 0.01 65 1012.7
20260507215531 58 319 2.0 9.0 0.00 0.36 0.01 62 1012.6
20260507215033 59 273 2.0 11.0 0.00 0.36 0.01 62 1012.5
20260507214544 60 328 4.0 11.0 0.00 0.36 0.01 63 1012.4
20260507214033 60 63 3.0 12.0 0.00 0.36 0.01 62 1012.4
20260507213533 60 55 3.0 12.0 0.00 0.36 0.01 61 1012.3
20260507213041 61 261 2.0 9.0 0.00 0.36 0.01 59 1012.3
20260507212536 61 261 1.0 12.0 0.00 0.36 0.01 62 1012.1
20260507212030 60 84 2.0 12.0 0.00 0.36 0.01 64 1012.1
20260507211539 60 273 4.0 11.0 0.00 0.36 0.01 60 1012.0
20260507211029 61 67 3.0 11.0 0.00 0.36 0.01 61 1012.0
20260507210530 61 50 3.0 11.0 0.00 0.36 0.01 62 1011.8
20260507210039 61 273 3.0 10.0 0.00 0.36 0.01 62 1011.8
20260507205530 61 286 2.0 10.0 0.00 0.36 0.01 64 1011.8
20260507205030 60 76 3.0 10.0 0.00 0.36 0.01 66 1012.0
20260507204539 61 298 1.0 8.0 0.00 0.36 0.01 68 1012.0
20260507204032 59 195 4.0 11.0 0.00 0.36 0.01 69 1012.2
20260507203533 59 273 5.0 13.0 0.00 0.36 0.01 64 1012.0
20260507203045 60 10 4.0 13.0 0.00 0.36 0.01 67 1012.0
20260507202531 60 323 3.0 12.0 0.00 0.36 0.01 67 1011.9
20260507202033 60 282 3.0 8.0 0.00 0.36 0.01 65 1011.9
20260507201540 58 248 1.0 9.0 0.00 0.36 0.01 69 1011.8
20260507201033 58 123 3.0 11.0 0.00 0.36 0.01 69 1011.9
20260507200537 58 194 4.0 12.0 0.00 0.36 0.01 66 1011.7
20260507200049 60 311 3.0 12.0 0.00 0.36 0.01 65 1011.7
20260507195535 61 242 3.0 10.0 0.00 0.36 0.01 66 1011.6
20260507195033 60 60 2.0 11.0 0.00 0.36 0.01 68 1011.7
20260507194547 60 223 4.0 11.0 0.00 0.36 0.01 66 1011.7
20260507194030 60 94 0.0 9.0 0.00 0.36 0.01 72 1011.6
20260507193530 58 283 2.0 9.0 0.00 0.36 0.01 68 1011.9
20260507193037 59 0 2.0 10.0 0.00 0.36 0.01 71 1012.0
20260507192533 58 256 2.0 10.0 0.00 0.36 0.01 72 1012.1
20260507192035 58 355 3.0 9.0 0.00 0.36 0.01 72 1012.2
20260507191603 58 306 3.0 10.0 0.00 0.36 0.01 74 1012.4
20260507191029 57 0 2.0 10.0 0.00 0.36 0.01 75 1012.4
20260507190533 58 225 2.0 10.0 0.00 0.36 0.01 72 1012.5
20260507190045 58 355 2.0 10.0 0.00 0.36 0.01 77 1012.5
20260507185534 57 350 3.0 8.0 0.00 0.36 0.01 75 1012.4
20260507185034 56 252 2.0 7.0 0.00 0.36 0.01 77 1012.4
20260507184555 56 232 1.0 5.0 0.00 0.36 0.01 78 1012.5
20260507184033 55 238 0.0 5.0 0.00 0.36 0.01 78 1012.5
20260507183534 55 287 1.0 5.0 0.00 0.36 0.01 79 1012.8
20260507183046 55 327 1.0 5.0 0.00 0.36 0.01 77 1012.7
20260507182533 55 335 1.0 5.0 0.00 0.36 0.01 77 1012.9
20260507182031 55 0 1.0 4.0 0.00 0.36 0.01 77 1012.9
20260507181540 55 0 0.0 8.0 0.00 0.36 0.01 75 1012.8
20260507181033 56 63 0.0 8.0 0.00 0.36 0.01 76 1012.7
20260507180530 56 138 3.0 8.0 0.00 0.36 0.01 75 1012.6
20260507180041 56 106 1.0 6.0 0.00 0.36 0.01 79 1012.7
20260507175529 55 325 2.0 9.0 0.00 0.36 0.01 76 1012.7
20260507175033 55 355 3.0 9.0 0.00 0.36 0.01 76 1012.6
20260507174537 56 50 1.0 8.0 0.00 0.36 0.01 79 1012.7
20260507174029 55 61 2.0 8.0 0.00 0.36 0.01 78 1012.7
20260507173535 55 69 1.0 6.0 0.00 0.36 0.01 78 1012.7
20260507173041 54 0 1.0 8.0 0.00 0.36 0.01 80 1012.7
20260507172534 54 311 3.0 8.0 0.00 0.36 0.01 77 1012.7
20260507172033 54 286 2.0 5.0 0.00 0.36 0.01 78 1012.9
20260507171548 55 0 1.0 4.0 0.00 0.36 0.01 79 1012.9
20260507171033 55 0 0.0 6.0 0.00 0.36 0.01 80 1012.9
20260507170533 54 68 1.0 6.0 0.00 0.36 0.01 81 1013.1
20260507170042 54 40 2.0 7.0 0.00 0.36 0.01 80 1013.0
20260507165535 54 309 2.0 7.0 0.00 0.41 0.01 80 1012.9
20260507165031 54 297 2.0 5.0 0.00 0.41 0.01 81 1013.0
20260507164604 54 52 0.0 4.0 0.00 0.41 0.01 83 1013.0
20260507164030 53 21 1.0 4.0 0.00 0.41 0.01 82 1013.1
20260507163538 53 314 1.0 4.0 0.00 0.41 0.01 84 1013.1
20260507163049 53 42 0.0 3.0 0.00 0.41 0.01 86 1013.1
20260507162534 52 35 0.0 5.0 0.00 0.41 0.01 85 1013.1
20260507162034 52 325 1.0 5.0 0.00 0.41 0.01 83 1013.2
20260507161552 52 306 2.0 5.0 0.00 0.41 0.01 82 1013.2
20260507161033 52 62 1.0 5.0 0.00 0.41 0.01 84 1013.2
20260507160535 52 80 1.0 6.0 0.00 0.41 0.01 84 1013.2
20260507160048 52 46 1.0 6.0 0.00 0.41 0.01 85 1013.2
20260507155535 52 53 1.0 6.0 0.00 0.44 0.01 85 1013.1
20260507155034 51 325 1.0 4.0 0.00 0.44 0.01 84 1013.3
20260507154548 51 0 1.0 4.0 0.00 0.44 0.01 85 1013.3
20260507154030 52 0 0.0 2.0 0.00 0.44 0.01 86 1013.3
20260507153533 51 0 0.0 2.0 0.00 0.44 0.01 85 1013.4
20260507153039 51 0 0.0 4.0 0.00 0.44 0.01 83 1013.5
20260507152532 51 0 1.0 4.0 0.00 0.44 0.01 82 1013.4
20260507152030 52 0 1.0 4.0 0.00 0.44 0.01 84 1013.3
20260507151548 52 49 1.0 3.0 0.00 0.44 0.01 85 1013.2
20260507151030 52 0 0.0 2.0 0.00 0.44 0.01 83 1013.3
20260507150530 52 337 0.0 2.0 0.00 0.44 0.01 83 1013.5
20260507150037 52 0 0.0 3.0 0.00 0.44 0.01 81 1013.4
20260507145530 51 0 0.0 4.0 0.00 0.49 0.01 82 1013.3
20260507145033 51 51 1.0 4.0 0.00 0.49 0.01 83 1013.3
20260507144545 51 306 1.0 6.0 0.00 0.49 0.01 81 1013.4
20260507144033 52 310 1.0 6.0 0.00 0.49 0.01 81 1013.3
20260507143533 52 30 1.0 5.0 0.00 0.49 0.01 83 1013.3
20260507143100 52 40 1.0 5.0 0.00 0.49 0.01 84 1013.2
20260507142533 52 11 2.0 5.0 0.00 0.49 0.01 85 1013.2
20260507142033 52 72 0.0 4.0 0.00 0.49 0.01 87 1013.3
20260507141555 52 72 0.0 4.0 0.00 0.49 0.01 87 1013.2
20260507141034 52 72 1.0 4.0 0.00 0.49 0.01 86 1013.2
20260507140535 52 71 1.0 4.0 0.00 0.49 0.01 87 1013.0
20260507140039 52 71 1.0 7.0 0.00 0.49 0.01 86 1013.1
20260507135530 52 78 3.0 7.0 0.00 0.57 0.01 86 1013.1
20260507135030 52 59 2.0 4.0 0.00 0.57 0.01 87 1013.3
20260507134549 52 88 1.0 6.0 0.00 0.57 0.01 88 1013.3
20260507134034 53 79 1.0 6.0 0.00 0.57 0.01 89 1013.1
20260507133533 53 93 1.0 6.0 0.00 0.57 0.01 89 1013.0
20260507133048 53 0 0.0 2.0 0.00 0.57 0.01 90 1013.1
20260507132529 53 0 0.0 2.0 0.00 0.57 0.01 90 1013.3
20260507132029 53 0 0.0 4.0 0.00 0.57 0.01 91 1013.3
20260507131554 53 360 2.0 4.0 0.00 0.57 0.01 90 1013.2
20260507131033 53 136 0.0 3.0 0.00 0.57 0.01 91 1013.2
20260507130531 53 0 0.0 2.0 0.00 0.57 0.01 91 1013.2
20260507130046 53 0 0.0 4.0 0.00 0.57 0.01 92 1013.2
20260507125529 53 234 1.0 4.0 0.00 0.61 0.01 91 1013.5
20260507125034 53 0 0.0 3.0 0.00 0.61 0.01 91 1013.4
20260507124544 53 0 0.0 2.0 0.00 0.61 0.01 92 1013.6
20260507124034 53 0 0.0 2.0 0.00 0.61 0.01 92 1013.5
20260507123530 52 231 0.0 2.0 0.00 0.61 0.01 91 1013.4
20260507123043 53 231 0.0 4.0 0.00 0.61 0.01 92 1013.3
20260507122530 53 0 0.0 4.0 0.00 0.61 0.01 92 1013.4
20260507122030 53 0 1.0 4.0 0.00 0.61 0.01 92 1013.6